Location: Unspecified
(0.0000°N, 0.0000°E)
Time: 21:08:48
(UTC+00:00)

Tiros 1 despin weight - Pass Details

Date: 02 June 2022
Orbit: 591 x 639 km, 48.2° (Epoch: 25 June)

Event Time Altitude Azimuth Distance (km) Brightness Sun altitude
Rises 00:16:27 0° 322° (NW) 2,803 - -67.4°
Reaches altitude 10° 00:18:43 10° 323° (NW) 1,905 - -67.3°
Maximum altitude 00:23:05 84° 49° (NE) 596 - -67.0°
Drops below altitude 10° 00:27:29 10° 139° (SE) 1,924 - -66.7°
Sets 00:29:47 0° 140° (SE) 2,833 - -66.5°
